Time,TemperatureF,DewpointF,PressureIn,WindDirection,WindDirectionDegrees,WindSpeedMPH,WindSpeedGustMPH,Humidity,HourlyPrecipIn,Conditions,Clouds,dailyrainin,SoftwareType,DateUTC
2013-07-12 00:01:00,67.0,55.0,29.74,SSW,202,0.0,0.0,66,0.00,,,0.00,,2013-07-12 06:01:00,
2013-07-12 00:11:00,67.0,55.0,29.74,SSW,202,0.0,0.0,66,0.00,,,0.00,,2013-07-12 06:11:00,
2013-07-12 00:22:00,67.0,56.0,29.73,West,261,0.0,1.0,69,0.00,,,0.00,,2013-07-12 06:22:00,
2013-07-12 00:32:00,66.0,56.0,29.73,West,260,0.0,0.0,69,0.00,,,0.00,,2013-07-12 06:32:00,
2013-07-12 00:42:00,66.0,56.0,29.73,West,260,0.0,0.0,69,0.00,,,0.00,,2013-07-12 06:42:00,
2013-07-12 00:52:00,66.0,56.0,29.73,SW,235,0.0,1.0,69,0.00,,,0.00,,2013-07-12 06:52:00,
2013-07-12 01:02:00,66.0,56.0,29.73,SW,235,0.0,0.0,69,0.00,,,0.00,,2013-07-12 07:02:00,
2013-07-12 01:11:00,66.0,56.0,29.73,SW,235,0.0,0.0,69,0.00,,,0.00,,2013-07-12 07:11:00,
2013-07-12 01:22:00,66.0,55.0,29.73,West,263,0.0,0.0,68,0.00,,,0.00,,2013-07-12 07:22:00,
2013-07-12 01:32:00,66.0,54.0,29.72,WNW,288,0.0,1.0,66,0.00,,,0.00,,2013-07-12 07:32:00,
2013-07-12 01:43:00,66.0,54.0,29.72,WNW,288,0.0,1.0,66,0.00,,,0.00,,2013-07-12 07:43:00,
2013-07-12 01:52:00,67.0,54.0,29.72,East,97,0.0,3.0,63,0.00,,,0.00,,2013-07-12 07:52:00,
2013-07-12 02:01:00,67.0,54.0,29.72,NNW,343,0.0,3.0,62,0.00,,,0.00,,2013-07-12 08:01:00,
2013-07-12 02:21:00,67.0,54.0,29.72,NNW,343,0.0,2.0,62,0.00,,,0.00,,2013-07-12 08:21:00,
2013-07-12 02:31:00,67.0,54.0,29.72,NNW,343,0.0,1.0,62,0.00,,,0.00,,2013-07-12 08:31:00,
2013-07-12 02:42:00,67.0,54.0,29.72,NNW,343,0.0,1.0,62,0.00,,,0.00,,2013-07-12 08:42:00,
2013-07-12 02:53:00,66.0,53.0,29.72,NNW,343,0.0,1.0,64,0.00,,,0.00,,2013-07-12 08:53:00,
2013-07-12 03:02:00,66.0,54.0,29.72,NNW,343,0.0,0.0,65,0.00,,,0.00,,2013-07-12 09:02:00,
2013-07-12 03:12:00,66.0,54.0,29.72,NNW,343,0.0,0.0,65,0.00,,,0.00,,2013-07-12 09:12:00,
2013-07-12 03:22:00,66.0,53.0,29.72,NNW,343,0.0,1.0,63,0.00,,,0.00,,2013-07-12 09:22:00,
2013-07-12 03:32:00,66.0,53.0,29.72,NNW,343,0.0,1.0,62,0.00,,,0.00,,2013-07-12 09:32:00,
2013-07-12 03:42:00,66.0,53.0,29.72,NNW,343,0.0,1.0,62,0.00,,,0.00,,2013-07-12 09:42:00,
2013-07-12 03:52:00,66.0,54.0,29.72,NNW,343,0.0,1.0,66,0.00,,,0.00,,2013-07-12 09:52:00,
2013-07-12 04:01:00,66.0,53.0,29.72,NNW,343,0.0,2.0,63,0.00,,,0.00,,2013-07-12 10:01:00,
2013-07-12 04:11:00,66.0,53.0,29.72,NNW,343,0.0,2.0,63,0.00,,,0.00,,2013-07-12 10:11:00,
2013-07-12 04:22:00,66.0,54.0,29.73,NNW,343,0.0,0.0,66,0.00,,,0.00,,2013-07-12 10:22:00,
2013-07-12 04:33:00,66.0,55.0,29.73,NNW,343,0.0,0.0,67,0.00,,,0.00,,2013-07-12 10:33:00,
2013-07-12 04:42:00,66.0,55.0,29.73,NNW,343,0.0,0.0,67,0.00,,,0.00,,2013-07-12 10:42:00,
2013-07-12 04:52:00,66.0,53.0,29.73,NNW,332,0.0,0.0,64,0.00,,,0.00,,2013-07-12 10:52:00,
2013-07-12 05:02:00,66.0,53.0,29.73,NNW,333,0.0,0.0,64,0.00,,,0.00,,2013-07-12 11:02:00,
2013-07-12 05:11:00,66.0,53.0,29.73,NNW,333,0.0,0.0,64,0.00,,,0.00,,2013-07-12 11:11:00,
2013-07-12 05:22:00,66.0,54.0,29.74,NNW,332,0.0,0.0,65,0.00,,,0.00,,2013-07-12 11:22:00,
2013-07-12 05:32:00,66.0,56.0,29.74,NNW,332,0.0,0.0,69,0.00,,,0.00,,2013-07-12 11:32:00,
2013-07-12 05:43:00,66.0,56.0,29.74,NNW,332,0.0,0.0,69,0.00,,,0.00,,2013-07-12 11:43:00,
2013-07-12 05:53:00,65.0,55.0,29.75,NNW,332,0.0,0.0,70,0.00,,,0.00,,2013-07-12 11:53:00,
2013-07-12 06:01:00,65.0,57.0,29.75,NNW,329,0.0,0.0,75,0.00,,,0.00,,2013-07-12 12:01:00,
2013-07-12 06:11:00,65.0,57.0,29.75,NNW,329,0.0,0.0,75,0.00,,,0.00,,2013-07-12 12:11:00,
2013-07-12 06:22:00,65.0,57.0,29.75,West,278,0.0,1.0,75,0.00,,,0.00,,2013-07-12 12:22:00,
2013-07-12 06:32:00,65.0,56.0,29.75,West,277,0.0,0.0,73,0.00,,,0.00,,2013-07-12 12:32:00,
2013-07-12 06:43:00,65.0,56.0,29.75,West,277,0.0,0.0,73,0.00,,,0.00,,2013-07-12 12:43:00,
2013-07-12 06:52:00,65.0,56.0,29.75,West,278,0.0,0.0,73,0.00,,,0.00,,2013-07-12 12:52:00,
2013-07-12 07:01:00,64.0,57.0,29.75,West,277,0.0,0.0,78,0.00,,,0.00,,2013-07-12 13:01:00,
2013-07-12 07:11:00,64.0,57.0,29.75,West,277,0.0,0.0,78,0.00,,,0.00,,2013-07-12 13:11:00,
2013-07-12 07:22:00,62.0,57.0,29.76,West,280,0.0,0.0,84,0.00,,,0.00,,2013-07-12 13:22:00,
2013-07-12 07:43:00,62.0,58.0,29.76,West,280,0.0,0.0,86,0.00,,,0.00,,2013-07-12 13:43:00,
2013-07-12 07:53:00,62.0,58.0,29.77,West,280,0.0,0.0,87,0.00,,,0.00,,2013-07-12 13:53:00,
2013-07-12 08:02:00,62.0,58.0,29.77,West,280,0.0,0.0,87,0.00,,,0.00,,2013-07-12 14:02:00,
2013-07-12 08:11:00,63.0,59.0,29.77,West,280,0.0,0.0,87,0.00,,,0.00,,2013-07-12 14:11:00,
2013-07-12 08:22:00,63.0,58.0,29.78,SSE,158,0.0,1.0,83,0.00,,,0.00,,2013-07-12 14:22:00,
2013-07-12 08:32:00,63.0,58.0,29.78,SSE,158,0.0,1.0,83,0.00,,,0.00,,2013-07-12 14:32:00,
2013-07-12 08:43:00,64.0,59.0,29.78,SW,227,0.0,2.0,84,0.00,,,0.00,,2013-07-12 14:43:00,
2013-07-12 08:53:00,64.0,59.0,29.78,SW,227,0.0,2.0,84,0.00,,,0.00,,2013-07-12 14:53:00,
2013-07-12 09:01:00,64.0,58.0,29.78,West,278,0.0,1.0,81,0.00,,,0.00,,2013-07-12 15:01:00,
2013-07-12 09:11:00,65.0,59.0,29.78,SSE,158,0.0,3.0,82,0.00,,,0.00,,2013-07-12 15:11:00,
2013-07-12 09:22:00,65.0,59.0,29.78,SSE,158,0.0,3.0,82,0.00,,,0.00,,2013-07-12 15:22:00,
2013-07-12 09:33:00,66.0,59.0,29.78,NW,311,0.0,2.0,78,0.00,,,0.00,,2013-07-12 15:33:00,
2013-07-12 09:43:00,67.0,61.0,29.79,West,275,0.0,2.0,81,0.01,,,0.01,,2013-07-12 15:43:00,
2013-07-12 09:52:00,67.0,61.0,29.79,West,275,0.0,2.0,81,0.01,,,0.01,,2013-07-12 15:52:00,
2013-07-12 10:01:00,66.0,61.0,29.79,WSW,257,0.0,1.0,83,0.01,,,0.01,,2013-07-12 16:01:00,
2013-07-12 10:11:00,67.0,62.0,29.79,West,259,0.0,1.0,85,0.01,,,0.01,,2013-07-12 16:11:00,
2013-07-12 10:22:00,67.0,62.0,29.80,West,259,0.0,1.0,84,0.01,,,0.01,,2013-07-12 16:22:00,
2013-07-12 10:32:00,67.0,62.0,29.80,West,259,0.0,1.0,84,0.01,,,0.01,,2013-07-12 16:32:00,
2013-07-12 10:42:00,68.0,62.0,29.80,West,259,0.0,1.0,82,0.00,,,0.01,,2013-07-12 16:42:00,
2013-07-12 10:53:00,69.0,63.0,29.80,West,262,1.0,2.0,80,0.00,,,0.01,,2013-07-12 16:53:00,
2013-07-12 11:02:00,69.0,63.0,29.80,West,262,1.0,2.0,80,0.00,,,0.01,,2013-07-12 17:02:00,
2013-07-12 11:12:00,70.0,63.0,29.80,West,266,0.0,2.0,78,0.00,,,0.01,,2013-07-12 17:12:00,
2013-07-12 11:21:00,70.0,63.0,29.80,West,266,0.0,2.0,78,0.00,,,0.01,,2013-07-12 17:21:00,
2013-07-12 11:33:00,70.0,62.0,29.81,WSW,257,0.0,1.0,77,0.00,,,0.01,,2013-07-12 17:33:00,
2013-07-12 11:43:00,70.0,62.0,29.81,West,265,0.0,2.0,75,0.00,,,0.01,,2013-07-12 17:43:00,
2013-07-12 11:52:00,71.0,62.0,29.81,WSW,245,0.0,2.0,72,0.00,,,0.01,,2013-07-12 17:52:00,
2013-07-12 12:02:00,71.0,62.0,29.81,WSW,245,0.0,2.0,72,0.00,,,0.01,,2013-07-12 18:02:00,
2013-07-12 12:12:00,71.0,62.0,29.81,West,266,0.0,1.0,72,0.00,,,0.01,,2013-07-12 18:12:00,
2013-07-12 12:33:00,71.0,62.0,29.81,West,268,0.0,1.0,73,0.00,,,0.01,,2013-07-12 18:33:00,
2013-07-12 12:44:00,71.0,62.0,29.81,West,269,0.0,2.0,72,0.00,,,0.01,,2013-07-12 18:44:00,
2013-07-12 12:52:00,71.0,61.0,29.81,West,261,1.0,2.0,71,0.00,,,0.01,,2013-07-12 18:52:00,
2013-07-12 13:02:00,71.0,61.0,29.81,West,261,1.0,2.0,71,0.00,,,0.01,,2013-07-12 19:02:00,
2013-07-12 13:12:00,72.0,61.0,29.81,West,268,0.0,2.0,68,0.00,,,0.01,,2013-07-12 19:12:00,
2013-07-12 13:21:00,72.0,61.0,29.81,West,268,0.0,2.0,68,0.00,,,0.01,,2013-07-12 19:21:00,
2013-07-12 13:32:00,74.0,61.0,29.81,West,274,0.0,3.0,65,0.00,,,0.01,,2013-07-12 19:32:00,
2013-07-12 13:44:00,76.0,62.0,29.81,West,267,0.0,3.0,63,0.00,,,0.01,,2013-07-12 19:44:00,
2013-07-12 13:52:00,76.0,62.0,29.81,West,267,0.0,3.0,63,0.00,,,0.01,,2013-07-12 19:52:00,
2013-07-12 14:01:00,78.0,62.0,29.80,West,269,1.0,3.0,59,0.00,,,0.01,,2013-07-12 20:01:00,
2013-07-12 14:12:00,78.0,62.0,29.80,SW,226,0.0,3.0,57,0.00,,,0.01,,2013-07-12 20:12:00,
2013-07-12 14:22:00,78.0,59.0,29.80,West,271,1.0,3.0,52,0.00,,,0.01,,2013-07-12 20:22:00,
2013-07-12 14:33:00,78.0,59.0,29.80,West,271,1.0,3.0,52,0.00,,,0.01,,2013-07-12 20:33:00,
2013-07-12 14:43:00,80.0,62.0,29.79,WNW,283,0.0,3.0,54,0.00,,,0.01,,2013-07-12 20:43:00,
2013-07-12 15:02:00,81.0,61.0,29.78,WSW,248,0.0,2.0,51,0.00,,,0.01,,2013-07-12 21:02:00,
2013-07-12 15:12:00,81.0,59.0,29.78,West,270,0.0,2.0,47,0.00,,,0.01,,2013-07-12 21:12:00,
2013-07-12 15:33:00,81.0,60.0,29.77,West,280,0.0,3.0,49,0.00,,,0.01,,2013-07-12 21:33:00,
2013-07-12 15:43:00,81.0,59.0,29.77,West,268,1.0,3.0,48,0.00,,,0.01,,2013-07-12 21:43:00,
2013-07-12 15:53:00,82.0,59.0,29.76,West,275,1.0,3.0,46,0.00,,,0.01,,2013-07-12 21:53:00,
2013-07-12 16:02:00,82.0,59.0,29.76,West,275,1.0,3.0,46,0.00,,,0.01,,2013-07-12 22:02:00,
2013-07-12 16:21:00,82.0,59.0,29.75,WSW,245,0.0,4.0,46,0.00,,,0.01,,2013-07-12 22:21:00,
2013-07-12 16:32:00,83.0,59.0,29.75,West,259,0.0,3.0,45,0.00,,,0.01,,2013-07-12 22:32:00,
2013-07-12 16:43:00,83.0,57.0,29.74,WSW,257,0.0,3.0,41,0.00,,,0.01,,2013-07-12 22:43:00,
2013-07-12 16:52:00,84.0,58.0,29.74,West,264,0.0,2.0,41,0.00,,,0.01,,2013-07-12 22:52:00,
2013-07-12 17:02:00,84.0,58.0,29.74,West,264,0.0,2.0,41,0.00,,,0.01,,2013-07-12 23:02:00,
2013-07-12 17:12:00,85.0,58.0,29.73,West,268,0.0,3.0,40,0.00,,,0.01,,2013-07-12 23:12:00,
2013-07-12 17:32:00,85.0,54.0,29.72,NW,322,0.0,2.0,35,0.00,,,0.01,,2013-07-12 23:32:00,
2013-07-12 17:42:00,85.0,54.0,29.72,West,264,1.0,2.0,35,0.00,,,0.01,,2013-07-12 23:42:00,
2013-07-12 17:52:00,85.0,56.0,29.72,WNW,300,0.0,2.0,37,0.00,,,0.01,,2013-07-12 23:52:00,
2013-07-12 18:02:00,85.0,56.0,29.72,WNW,300,0.0,2.0,37,0.00,,,0.01,,2013-07-13 00:02:00,
2013-07-12 18:13:00,86.0,56.0,29.71,West,263,0.0,1.0,36,0.00,,,0.01,,2013-07-13 00:13:00,
2013-07-12 18:21:00,86.0,56.0,29.71,West,263,0.0,1.0,36,0.00,,,0.01,,2013-07-13 00:21:00,
2013-07-12 18:32:00,86.0,51.0,29.72,West,259,0.0,2.0,30,0.00,,,0.01,,2013-07-13 00:32:00,
2013-07-12 18:43:00,86.0,52.0,29.71,West,259,0.0,0.0,31,0.00,,,0.01,,2013-07-13 00:43:00,
2013-07-12 18:52:00,86.0,52.0,29.71,West,259,0.0,0.0,31,0.00,,,0.01,,2013-07-13 00:52:00,
2013-07-12 19:02:00,85.0,53.0,29.71,West,271,0.0,1.0,34,0.00,,,0.01,,2013-07-13 01:02:00,
2013-07-12 19:11:00,85.0,53.0,29.71,West,271,0.0,1.0,34,0.00,,,0.01,,2013-07-13 01:11:00,
2013-07-12 19:21:00,85.0,53.0,29.71,West,271,0.0,1.0,34,0.00,,,0.01,,2013-07-13 01:21:00,
2013-07-12 19:43:00,83.0,53.0,29.71,West,274,0.0,1.0,36,0.00,,,0.01,,2013-07-13 01:43:00,
2013-07-12 19:56:00,83.0,55.0,29.71,WSW,241,0.0,2.0,39,0.00,,,0.01,,2013-07-13 01:56:00,
2013-07-12 20:01:00,83.0,55.0,29.71,WSW,241,0.0,2.0,39,0.00,,,0.01,,2013-07-13 02:01:00,
2013-07-12 20:21:00,80.0,55.0,29.71,WSW,240,0.0,1.0,42,0.00,,,0.01,,2013-07-13 02:21:00,
2013-07-12 20:33:00,80.0,55.0,29.71,WSW,240,0.0,1.0,42,0.00,,,0.01,,2013-07-13 02:33:00,
2013-07-12 20:43:00,79.0,56.0,29.71,WSW,240,0.0,0.0,45,0.00,,,0.01,,2013-07-13 02:43:00,
2013-07-12 20:53:00,77.0,56.0,29.71,WSW,241,0.0,0.0,48,0.00,,,0.01,,2013-07-13 02:53:00,
2013-07-12 21:02:00,77.0,56.0,29.71,WSW,241,0.0,0.0,48,0.00,,,0.01,,2013-07-13 03:02:00,
2013-07-12 21:12:00,76.0,55.0,29.71,WSW,243,0.0,1.0,49,0.00,,,0.01,,2013-07-13 03:12:00,
2013-07-12 21:33:00,76.0,55.0,29.71,WNW,293,0.0,1.0,49,0.00,,,0.01,,2013-07-13 03:33:00,
2013-07-12 21:44:00,75.0,55.0,29.71,NW,325,0.0,3.0,49,0.00,,,0.01,,2013-07-13 03:44:00,
2013-07-12 21:53:00,75.0,55.0,29.71,NW,305,0.0,1.0,49,0.00,,,0.01,,2013-07-13 03:53:00,
2013-07-12 22:01:00,75.0,55.0,29.71,NW,305,0.0,1.0,49,0.00,,,0.01,,2013-07-13 04:01:00,
2013-07-12 22:11:00,75.0,55.0,29.72,ESE,120,0.0,3.0,49,0.00,,,0.01,,2013-07-13 04:11:00,
2013-07-12 22:32:00,74.0,54.0,29.72,WNW,302,0.0,2.0,50,0.00,,,0.01,,2013-07-13 04:32:00,
2013-07-12 22:43:00,74.0,54.0,29.73,WNW,296,0.0,2.0,50,0.00,,,0.01,,2013-07-13 04:43:00,
2013-07-12 22:52:00,74.0,54.0,29.73,WNW,296,0.0,2.0,50,0.00,,,0.01,,2013-07-13 04:52:00,
2013-07-12 23:01:00,74.0,54.0,29.73,SE,127,0.0,3.0,50,0.00,,,0.01,,2013-07-13 05:01:00,
2013-07-12 23:11:00,74.0,54.0,29.73,SSE,165,0.0,3.0,49,0.00,,,0.01,,2013-07-13 05:11:00,
2013-07-12 23:21:00,74.0,54.0,29.73,SSE,165,0.0,3.0,49,0.00,,,0.01,,2013-07-13 05:21:00,
2013-07-12 23:32:00,74.0,54.0,29.74,SSE,164,0.0,2.0,49,0.00,,,0.01,,2013-07-13 05:32:00,
2013-07-12 23:42:00,74.0,54.0,29.74,North,352,0.0,2.0,50,0.00,,,0.01,,2013-07-13 05:42:00,
2013-07-12 23:52:00,73.0,54.0,29.75,West,281,0.0,2.0,52,0.00,,,0.01,,2013-07-13 05:52:00,